CDT,Max TemperatureF,Mean TemperatureF,Min TemperatureF,Max Dew PointF,MeanDew PointF,Min DewpointF,Max Humidity, Mean Humidity, Min Humidity, Max Sea Level PressureIn, Mean Sea Level PressureIn, Min Sea Level PressureIn, Max VisibilityMiles, Mean VisibilityMiles, Min VisibilityMiles, Max Wind SpeedMPH, Mean Wind SpeedMPH, Max Gust SpeedMPH,PrecipitationIn, CloudCover, Events, WindDirDegrees
2013-7-1,82,72,62,66,63,59,94,75,45,29.92,29.85,29.79,10,9,2,15,2,26,0.00,3,Rain,203
2013-7-2,84,74,64,68,63,55,94,73,39,30.07,29.99,29.92,10,8,0,12,2,9,0.00,5,Fog,224
2013-7-3,77,72,68,70,66,64,94,84,73,30.14,30.10,30.05,10,8,2,10,2,,0.13,7,Rain,95
2013-7-4,77,72,68,68,65,63,88,81,65,30.14,30.10,30.06,10,8,2,13,4,21,0.09,7,Rain,135
2013-7-5,73,71,69,68,67,64,88,85,83,30.18,30.14,30.09,10,9,2,7,2,,0.02,7,Rain,155
2013-7-6,71,70,69,68,67,64,94,90,83,30.16,30.13,30.09,10,7,1,7,2,,0.13,7,Rain,94
2013-7-7,82,76,69,70,69,66,94,82,58,30.17,30.13,30.10,10,9,3,9,2,16,0.02,6,Rain,206
2013-7-8,86,77,68,70,68,64,94,80,51,30.21,30.17,30.12,10,9,0,18,2,,0.00,6,Fog-Rain,226
2013-7-9,87,79,71,72,70,64,94,76,46,30.20,30.15,30.08,10,8,1,9,2,,0.04,4,Rain,248
2013-7-10,87,78,69,73,69,64,94,76,52,30.11,30.05,29.96,10,7,0,18,2,29,0.02,4,Fog-Rain-Thunderstorm,256
2013-7-11,86,77,68,72,69,66,94,81,58,30.03,29.96,29.90,10,9,3,8,2,,0.02,5,Rain-Thunderstorm,248
2013-7-12,86,76,66,70,66,61,94,73,43,29.99,29.94,29.91,10,8,0,13,2,16,0.12,2,Fog,23
2013-7-13,82,71,60,66,64,59,94,76,54,30.08,30.02,29.96,10,9,5,9,3,17,0.01,3,,93
2013-7-14,84,78,71,72,68,64,88,75,51,30.19,30.12,30.05,10,10,5,10,4,18,0.23,6,Rain-Thunderstorm,94
2013-7-15,86,78,71,68,66,63,88,68,48,30.29,30.24,30.19,10,10,4,12,6,18,0.00,4,Rain,103
2013-7-16,87,79,71,70,67,63,88,69,43,30.33,30.29,30.25,10,10,10,9,3,,0.00,2,,90
2013-7-17,87,78,68,73,68,64,94,86,58,30.32,30.25,30.17,10,9,2,8,1,9,0.00,1,Rain-Thunderstorm,29
2013-7-18,87,78,69,72,68,63,94,73,43,30.21,30.15,30.07,10,9,4,6,2,,0.00,2,,92
2013-7-19,89,78,68,72,67,61,94,70,38,30.14,30.07,29.99,10,8,0,8,1,,0.00,1,Fog,228
2013-7-20,87,78,68,72,69,64,94,77,48,30.06,30.01,29.94,10,8,0,12,1,,0.00,2,Fog-Rain-Thunderstorm,222
2013-7-21,86,78,69,70,68,64,94,81,58,30.05,30.01,29.96,10,8,0,9,2,10,0.00,4,Fog-Rain-Thunderstorm,224
2013-7-22,82,76,69,72,68,64,94,79,58,30.01,29.97,29.89,10,9,4,17,5,22,0.00,6,,236
2013-7-23,77,73,69,70,68,66,94,86,74,30.00,29.95,29.88,10,9,1,14,4,18,0.00,6,Rain-Thunderstorm,222
2013-7-24,82,76,69,70,68,64,94,81,54,29.94,29.90,29.86,10,7,0,7,2,,0.00,4,Fog,275
2013-7-25,86,75,64,68,63,55,94,70,35,30.05,29.98,29.91,10,7,0,9,1,,0.00,1,Fog,336
2013-7-26,86,73,60,68,63,59,94,72,43,30.08,30.03,30.00,10,8,5,8,1,,0.00,1,,234
2013-7-27,82,75,68,68,65,59,88,74,45,30.00,29.96,29.91,10,8,5,10,2,16,0.00,3,,238
2013-7-28,84,74,64,66,64,63,94,73,48,30.10,30.01,29.95,10,9,2,7,1,,0.00,2,,326
2013-7-29,80,70,60,63,57,50,94,68,37,30.21,30.15,30.08,10,10,10,6,1,,0.00,0,,42
2013-7-30,89,73,57,70,60,52,94,69,29,30.23,30.17,30.11,10,10,7,9,2,,0.00,1,Rain,315
2013-7-31,80,74,68,72,67,64,94,82,65,30.17,30.08,29.98,10,9,2,12,2,16,0.07,7,Rain-Thunderstorm,131